Time,TemperatureF,DewpointF,PressureIn,WindDirection,WindDirectionDegrees,WindSpeedMPH,WindSpeedGustMPH,Humidity,HourlyPrecipIn,Conditions,Clouds,dailyrainin,SoftwareType,DateUTC
2013-02-05 00:00:00,33.6,26.9,28.79,WNW,293,0.0,0.0,76,-99.99,,,-99.99,WSDL version 420,2013-02-05 05:00:00,
2013-02-05 00:05:00,33.6,26.9,28.79,NNE,20,0.0,0.0,76,-99.99,,,-99.99,WSDL version 420,2013-02-05 05:05:00,
2013-02-05 00:06:00,33.6,26.9,28.79,NNW,345,0.0,0.0,76,-99.99,,,-99.99,WSDL version 420,2013-02-05 05:06:00,
2013-02-05 00:08:00,33.5,26.8,28.79,NNW,338,0.0,0.0,76,-99.99,,,-99.99,WSDL version 420,2013-02-05 05:08:00,
2013-02-05 00:09:00,33.5,26.8,28.79,NNW,338,0.0,0.0,76,-99.99,,,-99.99,WSDL version 420,2013-02-05 05:09:00,
2013-02-05 00:14:00,33.4,26.6,28.79,NNW,338,0.0,0.0,76,-99.99,,,-99.99,WSDL version 420,2013-02-05 05:14:00,
2013-02-05 00:20:00,33.3,26.5,28.79,NNW,338,0.0,0.0,76,-99.99,,,-99.99,WSDL version 420,2013-02-05 05:20:00,
2013-02-05 00:25:00,33.3,26.5,28.79,NNE,30,0.0,0.0,76,-99.99,,,-99.99,WSDL version 420,2013-02-05 05:25:00,
2013-02-05 00:30:00,33.2,26.5,28.79,NE,45,0.0,0.0,76,-99.99,,,-99.99,WSDL version 420,2013-02-05 05:30:00,
2013-02-05 00:35:00,33.1,26.4,28.79,NE,45,0.0,0.0,76,-99.99,,,-99.99,WSDL version 420,2013-02-05 05:35:00,
2013-02-05 00:41:00,33.1,26.3,28.79,NE,45,0.0,0.0,76,-99.99,,,-99.99,WSDL version 420,2013-02-05 05:41:00,
2013-02-05 00:46:00,33.1,26.3,28.79,NE,45,0.0,0.0,76,-99.99,,,-99.99,WSDL version 420,2013-02-05 05:46:00,
2013-02-05 00:51:00,33.1,26.3,28.79,NE,45,0.0,0.0,76,-99.99,,,-99.99,WSDL version 420,2013-02-05 05:51:00,
2013-02-05 00:56:00,33.1,26.3,28.79,ESE,113,0.0,0.0,76,-99.99,,,-99.99,WSDL version 420,2013-02-05 05:56:00,
2013-02-05 01:01:00,33.1,26.3,28.79,ESE,113,0.0,0.0,76,-99.99,,,-99.99,WSDL version 420,2013-02-05 06:01:00,
2013-02-05 01:06:00,33.1,26.3,28.79,ESE,113,0.0,0.0,76,-99.99,,,-99.99,WSDL version 420,2013-02-05 06:06:00,
2013-02-05 01:11:00,33.1,26.3,28.79,ESE,113,0.0,0.0,76,-99.99,,,-99.99,WSDL version 420,2013-02-05 06:11:00,
2013-02-05 01:16:00,33.1,26.3,28.79,ESE,113,0.0,0.0,76,-99.99,,,-99.99,WSDL version 420,2013-02-05 06:16:00,
2013-02-05 01:21:00,32.9,26.2,28.76,ESE,113,0.0,0.0,76,-99.99,,,-99.99,WSDL version 420,2013-02-05 06:21:00,
2013-02-05 01:26:00,32.9,26.2,28.76,ESE,113,0.0,0.0,76,-99.99,,,-99.99,WSDL version 420,2013-02-05 06:26:00,
2013-02-05 01:31:00,32.9,26.2,28.76,ESE,113,0.0,0.0,76,-99.99,,,-99.99,WSDL version 420,2013-02-05 06:31:00,
2013-02-05 01:36:00,33.1,26.3,28.76,ESE,113,0.0,0.0,76,-99.99,,,-99.99,WSDL version 420,2013-02-05 06:36:00,
2013-02-05 01:41:00,32.9,26.2,28.76,ESE,113,0.0,0.0,76,-99.99,,,-99.99,WSDL version 420,2013-02-05 06:41:00,
2013-02-05 01:46:00,32.9,26.2,28.76,ESE,113,0.0,0.0,76,-99.99,,,-99.99,WSDL version 420,2013-02-05 06:46:00,
2013-02-05 01:51:00,32.9,26.4,28.79,ESE,113,0.0,0.0,77,-99.99,,,-99.99,WSDL version 420,2013-02-05 06:51:00,
2013-02-05 01:56:00,32.9,26.5,28.79,ESE,113,0.0,0.0,77,-99.99,,,-99.99,WSDL version 420,2013-02-05 06:56:00,
2013-02-05 02:01:00,32.9,26.5,28.79,ESE,113,0.0,0.0,77,-99.99,,,-99.99,WSDL version 420,2013-02-05 07:01:00,
2013-02-05 02:06:00,32.9,26.5,28.76,ESE,113,0.0,0.0,77,-99.99,,,-99.99,WSDL version 420,2013-02-05 07:06:00,
2013-02-05 02:11:00,32.9,26.5,28.76,ESE,113,0.0,0.0,77,-99.99,,,-99.99,WSDL version 420,2013-02-05 07:11:00,
2013-02-05 02:16:00,32.9,26.5,28.76,ESE,113,0.0,0.0,77,-99.99,,,-99.99,WSDL version 420,2013-02-05 07:16:00,
2013-02-05 02:21:00,32.9,26.5,28.76,ESE,113,0.0,0.0,77,-99.99,,,-99.99,WSDL version 420,2013-02-05 07:21:00,
2013-02-05 02:26:00,32.9,26.5,28.76,ESE,113,0.0,0.0,77,-99.99,,,-99.99,WSDL version 420,2013-02-05 07:26:00,
2013-02-05 02:31:00,32.9,26.5,28.76,ESE,113,0.0,0.0,77,-99.99,,,-99.99,WSDL version 420,2013-02-05 07:31:00,
2013-02-05 02:36:00,33.0,26.6,28.79,ESE,113,0.0,0.0,77,-99.99,,,-99.99,WSDL version 420,2013-02-05 07:36:00,
2013-02-05 02:41:00,32.9,26.5,28.79,ESE,113,0.0,0.0,77,-99.99,,,-99.99,WSDL version 420,2013-02-05 07:41:00,
2013-02-05 02:46:00,32.9,26.5,28.79,ESE,113,0.0,0.0,77,-99.99,,,-99.99,WSDL version 420,2013-02-05 07:46:00,
2013-02-05 02:51:00,32.9,26.5,28.79,ESE,113,0.0,0.0,77,-99.99,,,-99.99,WSDL version 420,2013-02-05 07:51:00,
2013-02-05 02:56:00,32.9,26.5,28.79,ESE,113,0.0,0.0,77,-99.99,,,-99.99,WSDL version 420,2013-02-05 07:56:00,
2013-02-05 03:01:00,32.9,26.5,28.79,ESE,113,0.0,0.0,77,-99.99,,,-99.99,WSDL version 420,2013-02-05 08:01:00,
2013-02-05 03:06:00,32.9,26.5,28.79,ESE,113,0.0,0.0,77,-99.99,,,-99.99,WSDL version 420,2013-02-05 08:06:00,
2013-02-05 03:11:00,32.9,26.5,28.79,ESE,113,0.0,0.0,77,-99.99,,,-99.99,WSDL version 420,2013-02-05 08:11:00,
2013-02-05 03:16:00,32.9,26.5,28.79,ESE,113,0.0,0.0,77,-99.99,,,-99.99,WSDL version 420,2013-02-05 08:16:00,
2013-02-05 03:21:00,32.9,26.7,28.76,ESE,113,0.0,0.0,78,-99.99,,,-99.99,WSDL version 420,2013-02-05 08:21:00,
2013-02-05 03:26:00,32.9,26.8,28.76,ESE,113,0.0,0.0,78,-99.99,,,-99.99,WSDL version 420,2013-02-05 08:26:00,
2013-02-05 03:31:00,33.1,27.0,28.76,ESE,113,0.0,0.0,78,-99.99,,,-99.99,WSDL version 420,2013-02-05 08:31:00,
2013-02-05 03:36:00,33.1,27.0,28.76,ESE,113,0.0,0.0,78,-99.99,,,-99.99,WSDL version 420,2013-02-05 08:36:00,
2013-02-05 03:41:00,33.1,27.0,28.76,ESE,113,0.0,0.0,78,-99.99,,,-99.99,WSDL version 420,2013-02-05 08:41:00,
2013-02-05 03:46:00,33.1,26.8,28.76,ESE,113,0.0,0.0,77,-99.99,,,-99.99,WSDL version 420,2013-02-05 08:46:00,
2013-02-05 03:51:00,33.1,26.6,28.76,ESE,113,0.0,0.0,77,-99.99,,,-99.99,WSDL version 420,2013-02-05 08:51:00,
2013-02-05 03:56:00,32.9,26.5,28.76,ESE,113,0.0,0.0,77,-99.99,,,-99.99,WSDL version 420,2013-02-05 08:56:00,
2013-02-05 04:01:00,33.1,26.7,28.76,ESE,113,0.0,0.0,78,-99.99,,,-99.99,WSDL version 420,2013-02-05 09:01:00,
2013-02-05 04:06:00,33.1,27.0,28.76,ESE,113,0.0,0.0,78,-99.99,,,-99.99,WSDL version 420,2013-02-05 09:06:00,
2013-02-05 04:11:00,33.1,27.0,28.76,SE,128,0.0,0.0,78,-99.99,,,-99.99,WSDL version 420,2013-02-05 09:11:00,
2013-02-05 04:16:00,33.1,27.0,28.76,SE,135,0.0,0.0,78,-99.99,,,-99.99,WSDL version 420,2013-02-05 09:16:00,
2013-02-05 04:21:00,33.1,27.0,28.76,SE,135,0.0,0.0,78,-99.99,,,-99.99,WSDL version 420,2013-02-05 09:21:00,
2013-02-05 04:26:00,33.1,27.0,28.76,SE,135,0.0,0.0,78,-99.99,,,-99.99,WSDL version 420,2013-02-05 09:26:00,
2013-02-05 04:31:00,33.1,27.1,28.76,SE,135,0.0,0.0,79,-99.99,,,-99.99,WSDL version 420,2013-02-05 09:31:00,
2013-02-05 04:36:00,33.1,27.3,28.76,SE,135,0.0,0.0,79,-99.99,,,-99.99,WSDL version 420,2013-02-05 09:36:00,
2013-02-05 04:41:00,33.1,27.3,28.76,SE,135,0.0,0.0,79,-99.99,,,-99.99,WSDL version 420,2013-02-05 09:41:00,
2013-02-05 04:46:00,33.1,27.0,28.76,South,180,0.0,0.0,78,-99.99,,,-99.99,WSDL version 420,2013-02-05 09:46:00,
2013-02-05 04:51:00,33.2,27.1,28.79,WNW,293,0.0,0.0,78,-99.99,,,-99.99,WSDL version 420,2013-02-05 09:51:00,
2013-02-05 04:56:00,33.3,27.2,28.79,West,262,0.0,0.0,78,-99.99,,,-99.99,WSDL version 420,2013-02-05 09:56:00,
2013-02-05 05:01:00,33.4,27.3,28.79,West,260,0.0,0.0,78,-99.99,,,-99.99,WSDL version 420,2013-02-05 10:01:00,
2013-02-05 05:06:00,33.6,27.5,28.79,West,270,0.0,0.0,78,-99.99,,,-99.99,WSDL version 420,2013-02-05 10:06:00,
2013-02-05 05:11:00,33.6,27.5,28.79,West,275,0.0,0.0,78,-99.99,,,-99.99,WSDL version 420,2013-02-05 10:11:00,
2013-02-05 05:16:00,33.6,27.8,28.79,WNW,293,0.0,0.0,79,-99.99,,,-99.99,WSDL version 420,2013-02-05 10:16:00,
2013-02-05 05:21:00,33.6,27.8,28.79,WNW,295,0.0,0.0,79,-99.99,,,-99.99,WSDL version 420,2013-02-05 10:21:00,
2013-02-05 05:26:00,33.5,27.7,28.79,NW,310,0.6,3.1,79,-99.99,,,-99.99,WSDL version 420,2013-02-05 10:26:00,
2013-02-05 05:31:00,33.7,27.8,28.79,NW,309,1.4,3.1,78,-99.99,,,-99.99,WSDL version 420,2013-02-05 10:31:00,
2013-02-05 05:36:00,33.8,27.8,28.79,WNW,290,2.0,2.9,79,-99.99,,,-99.99,WSDL version 420,2013-02-05 10:36:00,
2013-02-05 05:41:00,33.8,28.0,28.79,West,281,1.4,3.1,79,-99.99,,,-99.99,WSDL version 420,2013-02-05 10:41:00,
2013-02-05 05:46:00,33.8,28.0,28.79,WNW,298,0.7,3.1,79,-99.99,,,-99.99,WSDL version 420,2013-02-05 10:46:00,
2013-02-05 05:51:00,33.9,28.4,28.79,West,278,3.0,5.6,81,-99.99,,,-99.99,WSDL version 420,2013-02-05 10:51:00,
2013-02-05 05:56:00,34.0,28.9,28.79,NW,313,1.9,5.8,82,-99.99,,,-99.99,WSDL version 420,2013-02-05 10:56:00,
2013-02-05 06:01:00,34.0,29.1,28.79,West,270,0.0,5.8,82,-99.99,,,-99.99,WSDL version 420,2013-02-05 11:01:00,
2013-02-05 06:06:00,33.8,29.0,28.79,West,278,0.3,1.3,82,-99.99,,,-99.99,WSDL version 420,2013-02-05 11:06:00,
2013-02-05 06:11:00,33.7,28.9,28.79,NW,305,0.1,2.7,82,-99.99,,,-99.99,WSDL version 420,2013-02-05 11:11:00,
2013-02-05 06:16:00,33.9,29.0,28.79,West,264,3.3,5.6,82,-99.99,,,-99.99,WSDL version 420,2013-02-05 11:16:00,
2013-02-05 06:21:00,34.0,29.5,28.79,NW,315,1.2,5.6,83,-99.99,,,-99.99,WSDL version 420,2013-02-05 11:21:00,
2013-02-05 06:26:00,33.9,29.4,28.79,NW,326,1.3,4.7,83,-99.99,,,-99.99,WSDL version 420,2013-02-05 11:26:00,
2013-02-05 06:31:00,33.9,29.4,28.79,NW,315,0.0,3.8,83,-99.99,,,-99.99,WSDL version 420,2013-02-05 11:31:00,
2013-02-05 06:36:00,33.7,29.0,28.79,NW,315,0.0,2.5,82,-99.99,,,-99.99,WSDL version 420,2013-02-05 11:36:00,
2013-02-05 06:41:00,33.6,28.8,28.79,NW,315,0.0,0.0,82,-99.99,,,-99.99,WSDL version 420,2013-02-05 11:41:00,
2013-02-05 06:46:00,33.4,28.6,28.79,NW,315,0.0,0.0,81,-99.99,,,-99.99,WSDL version 420,2013-02-05 11:46:00,
2013-02-05 06:51:00,33.3,28.1,28.79,NW,315,0.0,0.0,81,-99.99,,,-99.99,WSDL version 420,2013-02-05 11:51:00,
2013-02-05 06:56:00,33.3,28.1,28.79,NW,315,0.0,0.0,81,-99.99,,,-99.99,WSDL version 420,2013-02-05 11:56:00,
2013-02-05 07:01:00,33.3,28.1,28.79,NW,315,0.0,0.0,81,-99.99,,,-99.99,WSDL version 420,2013-02-05 12:01:00,
2013-02-05 07:06:00,33.2,28.0,28.79,NW,315,0.0,0.0,81,-99.99,,,-99.99,WSDL version 420,2013-02-05 12:06:00,
2013-02-05 07:11:00,33.1,27.9,28.79,NW,315,0.0,0.0,81,-99.99,,,-99.99,WSDL version 420,2013-02-05 12:11:00,
2013-02-05 07:16:00,33.1,27.9,28.79,NW,315,0.0,0.0,81,-99.99,,,-99.99,WSDL version 420,2013-02-05 12:16:00,
2013-02-05 07:21:00,33.1,27.9,28.79,NNE,20,0.0,0.0,81,-99.99,,,-99.99,WSDL version 420,2013-02-05 12:21:00,
2013-02-05 07:26:00,33.1,28.1,28.79,NNE,23,0.0,0.0,82,-99.99,,,-99.99,WSDL version 420,2013-02-05 12:26:00,
2013-02-05 07:31:00,33.1,28.3,28.79,NNE,23,0.0,0.0,82,-99.99,,,-99.99,WSDL version 420,2013-02-05 12:31:00,
2013-02-05 07:36:00,33.1,28.3,28.79,NNW,338,0.0,0.0,82,-99.99,,,-99.99,WSDL version 420,2013-02-05 12:36:00,
2013-02-05 07:41:00,33.2,28.1,28.79,NW,321,0.0,0.0,81,-99.99,,,-99.99,WSDL version 420,2013-02-05 12:41:00,
2013-02-05 07:46:00,33.3,28.1,28.79,NW,315,0.0,0.0,81,-99.99,,,-99.99,WSDL version 420,2013-02-05 12:46:00,
2013-02-05 07:51:00,33.4,28.2,28.79,NW,315,0.0,0.0,81,-99.99,,,-99.99,WSDL version 420,2013-02-05 12:51:00,
2013-02-05 07:56:00,33.6,28.4,28.79,WSW,248,0.0,0.0,81,-99.99,,,-99.99,WSDL version 420,2013-02-05 12:56:00,
2013-02-05 08:01:00,33.7,28.6,28.79,WNW,293,0.0,0.0,81,-99.99,,,-99.99,WSDL version 420,2013-02-05 13:01:00,
2013-02-05 08:06:00,33.9,29.0,28.79,SW,230,0.0,1.1,82,-99.99,,,-99.99,WSDL version 420,2013-02-05 13:06:00,
2013-02-05 08:11:00,34.0,29.1,28.79,West,275,0.0,1.1,82,-99.99,,,-99.99,WSDL version 420,2013-02-05 13:11:00,
2013-02-05 08:16:00,34.1,29.0,28.79,WNW,288,0.0,3.4,81,-99.99,,,-99.99,WSDL version 420,2013-02-05 13:16:00,
2013-02-05 08:21:00,34.3,29.5,28.79,West,275,0.0,3.8,82,-99.99,,,-99.99,WSDL version 420,2013-02-05 13:21:00,
2013-02-05 08:26:00,34.4,29.5,28.79,WNW,293,1.0,3.8,82,-99.99,,,-99.99,WSDL version 420,2013-02-05 13:26:00,
2013-02-05 08:31:00,34.6,29.7,28.79,West,275,2.2,3.8,82,-99.99,,,-99.99,WSDL version 420,2013-02-05 13:31:00,
2013-02-05 08:36:00,34.8,30.0,28.79,SW,236,0.0,3.8,82,-99.99,,,-99.99,WSDL version 420,2013-02-05 13:36:00,
2013-02-05 08:41:00,34.9,29.9,28.79,SSW,203,0.0,0.0,81,-99.99,,,-99.99,WSDL version 420,2013-02-05 13:41:00,
2013-02-05 08:46:00,35.1,29.9,28.79,West,273,0.3,3.6,81,-99.99,,,-99.99,WSDL version 420,2013-02-05 13:46:00,
2013-02-05 08:51:00,35.6,30.4,28.79,SSW,197,0.0,3.6,81,-99.99,,,-99.99,WSDL version 420,2013-02-05 13:51:00,
2013-02-05 08:56:00,36.1,30.8,28.79,West,265,0.0,3.8,80,-99.99,,,-99.99,WSDL version 420,2013-02-05 13:56:00,
2013-02-05 09:01:00,36.3,30.6,28.79,SW,231,0.0,3.8,79,-99.99,,,-99.99,WSDL version 420,2013-02-05 14:01:00,
2013-02-05 09:06:00,36.9,31.0,28.79,SSE,153,1.0,3.4,79,-99.99,,,-99.99,WSDL version 420,2013-02-05 14:06:00,
2013-02-05 09:11:00,37.2,31.0,28.79,SSE,158,0.0,2.7,78,-99.99,,,-99.99,WSDL version 420,2013-02-05 14:11:00,
2013-02-05 09:16:00,37.4,30.6,28.79,SSE,158,0.0,0.0,76,-99.99,,,-99.99,WSDL version 420,2013-02-05 14:16:00,
2013-02-05 09:21:00,37.4,30.1,28.79,SSE,158,0.0,0.0,74,-99.99,,,-99.99,WSDL version 420,2013-02-05 14:21:00,
2013-02-05 09:26:00,37.7,30.1,28.79,SSE,158,0.0,0.0,73,-99.99,,,-99.99,WSDL version 420,2013-02-05 14:26:00,
2013-02-05 09:31:00,37.6,29.3,28.79,SSE,158,0.5,1.3,71,-99.99,,,-99.99,WSDL version 420,2013-02-05 14:31:00,
2013-02-05 09:36:00,37.9,29.5,28.79,SSE,158,0.0,1.3,72,-99.99,,,-99.99,WSDL version 420,2013-02-05 14:36:00,
2013-02-05 09:41:00,38.8,30.7,28.79,SSE,153,0.1,1.6,72,-99.99,,,-99.99,WSDL version 420,2013-02-05 14:41:00,
2013-02-05 09:46:00,38.5,29.7,28.79,SSE,158,0.0,1.6,69,-99.99,,,-99.99,WSDL version 420,2013-02-05 14:46:00,
2013-02-05 09:51:00,38.8,29.6,28.79,SE,140,0.0,1.6,69,-99.99,,,-99.99,WSDL version 420,2013-02-05 14:51:00,
2013-02-05 09:56:00,38.9,29.5,28.79,NW,310,0.9,3.4,68,-99.99,,,-99.99,WSDL version 420,2013-02-05 14:56:00,
2013-02-05 10:01:00,38.8,28.9,28.79,NNW,338,1.4,3.4,67,-99.99,,,-99.99,WSDL version 420,2013-02-05 15:01:00,
2013-02-05 10:06:00,38.6,27.4,28.79,West,280,1.0,2.9,63,-99.99,,,-99.99,WSDL version 420,2013-02-05 15:06:00,
2013-02-05 10:11:00,38.9,27.4,28.79,North,354,0.0,2.7,63,-99.99,,,-99.99,WSDL version 420,2013-02-05 15:11:00,
2013-02-05 10:16:00,39.1,27.4,28.79,WNW,303,1.1,2.5,62,-99.99,,,-99.99,WSDL version 420,2013-02-05 15:16:00,
2013-02-05 10:21:00,39.1,26.5,28.79,West,278,1.7,2.9,59,-99.99,,,-99.99,WSDL version 420,2013-02-05 15:21:00,
2013-02-05 10:26:00,38.8,25.0,28.79,West,280,0.0,2.9,57,-99.99,,,-99.99,WSDL version 420,2013-02-05 15:26:00,
2013-02-05 10:31:00,38.6,24.5,28.79,WNW,300,1.5,3.6,56,-99.99,,,-99.99,WSDL version 420,2013-02-05 15:31:00,
2013-02-05 10:36:00,38.3,23.3,28.82,WNW,301,2.4,3.6,54,-99.99,,,-99.99,WSDL version 420,2013-02-05 15:36:00,
2013-02-05 10:41:00,38.2,22.8,28.82,NNW,345,1.7,3.4,54,-99.99,,,-99.99,WSDL version 420,2013-02-05 15:41:00,
2013-02-05 10:46:00,38.8,24.1,28.82,East,90,0.0,2.7,56,-99.99,,,-99.99,WSDL version 420,2013-02-05 15:46:00,
2013-02-05 10:51:00,40.0,25.7,28.79,East,90,0.0,1.1,57,-99.99,,,-99.99,WSDL version 420,2013-02-05 15:51:00,
2013-02-05 10:56:00,40.6,26.3,28.79,ENE,68,0.0,0.0,56,-99.99,,,-99.99,WSDL version 420,2013-02-05 15:56:00,
2013-02-05 11:01:00,41.0,26.0,28.79,ENE,68,0.0,0.0,54,-99.99,,,-99.99,WSDL version 420,2013-02-05 16:01:00,
2013-02-05 11:06:00,41.2,25.5,28.79,ENE,68,0.0,0.0,53,-99.99,,,-99.99,WSDL version 420,2013-02-05 16:06:00,
2013-02-05 11:11:00,41.4,25.6,28.79,ENE,68,0.0,0.0,53,-99.99,,,-99.99,WSDL version 420,2013-02-05 16:11:00,
2013-02-05 11:16:00,40.9,24.7,28.79,ENE,68,0.0,0.0,52,-99.99,,,-99.99,WSDL version 420,2013-02-05 16:16:00,
2013-02-05 11:21:00,41.0,24.3,28.79,ENE,68,0.0,0.0,51,-99.99,,,-99.99,WSDL version 420,2013-02-05 16:21:00,
2013-02-05 11:26:00,40.9,24.2,28.79,ENE,68,0.0,0.0,51,-99.99,,,-99.99,WSDL version 420,2013-02-05 16:26:00,
2013-02-05 11:31:00,40.5,23.8,28.79,ENE,68,0.0,0.0,51,-99.99,,,-99.99,WSDL version 420,2013-02-05 16:31:00,
2013-02-05 11:36:00,40.0,23.4,28.79,SW,225,0.0,2.7,52,-99.99,,,-99.99,WSDL version 420,2013-02-05 16:36:00,
2013-02-05 11:41:00,40.3,24.2,28.79,ESE,104,1.3,3.1,53,-99.99,,,-99.99,WSDL version 420,2013-02-05 16:41:00,
2013-02-05 11:46:00,41.4,25.4,28.79,ESE,113,0.0,3.1,53,-99.99,,,-99.99,WSDL version 420,2013-02-05 16:46:00,
2013-02-05 11:51:00,41.6,25.5,28.79,ENE,68,0.4,2.0,51,-99.99,,,-99.99,WSDL version 420,2013-02-05 16:51:00,
2013-02-05 11:56:00,41.3,24.6,28.79,ENE,68,0.0,2.0,51,-99.99,,,-99.99,WSDL version 420,2013-02-05 16:56:00,
2013-02-05 12:01:00,41.5,24.7,28.79,ENE,68,0.0,0.0,51,-99.99,,,-99.99,WSDL version 420,2013-02-05 17:01:00,
2013-02-05 12:06:00,41.4,24.7,28.79,North,360,0.8,3.4,51,-99.99,,,-99.99,WSDL version 420,2013-02-05 17:06:00,
2013-02-05 12:11:00,40.5,23.8,28.79,WNW,284,1.7,3.4,51,-99.99,,,-99.99,WSDL version 420,2013-02-05 17:11:00,
2013-02-05 12:16:00,39.7,22.9,28.79,NW,308,2.5,4.7,51,-99.99,,,-99.99,WSDL version 420,2013-02-05 17:16:00,
2013-02-05 12:21:00,39.2,22.9,28.79,West,267,3.9,4.7,53,-99.99,,,-99.99,WSDL version 420,2013-02-05 17:21:00,
2013-02-05 12:26:00,39.0,23.7,28.79,WNW,295,2.3,4.7,55,-99.99,,,-99.99,WSDL version 420,2013-02-05 17:26:00,
2013-02-05 12:31:00,38.7,24.4,28.79,WNW,302,3.3,4.3,57,-99.99,,,-99.99,WSDL version 420,2013-02-05 17:31:00,
2013-02-05 12:36:00,38.7,25.0,28.79,WNW,298,2.0,4.3,58,-99.99,,,-99.99,WSDL version 420,2013-02-05 17:36:00,
2013-02-05 12:41:00,38.7,25.6,28.79,NW,307,2.9,3.8,60,-99.99,,,-99.99,WSDL version 420,2013-02-05 17:41:00,
2013-02-05 12:46:00,38.7,26.4,28.79,West,267,1.6,3.8,61,-99.99,,,-99.99,WSDL version 420,2013-02-05 17:46:00,
2013-02-05 12:51:00,38.5,26.5,28.79,WNW,293,2.4,4.9,62,-99.99,,,-99.99,WSDL version 420,2013-02-05 17:51:00,
2013-02-05 12:56:00,38.5,26.9,28.79,WNW,287,2.3,6.0,63,-99.99,,,-99.99,WSDL version 420,2013-02-05 17:56:00,
2013-02-05 13:01:00,38.6,27.2,28.79,WNW,301,1.0,6.0,64,-99.99,,,-99.99,WSDL version 420,2013-02-05 18:01:00,
2013-02-05 13:06:00,38.7,27.6,28.79,WNW,290,2.4,5.4,65,-99.99,,,-99.99,WSDL version 420,2013-02-05 18:06:00,
2013-02-05 13:11:00,39.1,28.3,28.79,West,280,3.9,7.6,65,-99.99,,,-99.99,WSDL version 420,2013-02-05 18:11:00,
2013-02-05 13:16:00,39.2,28.5,28.79,WSW,256,3.1,7.6,65,-99.99,,,-99.99,WSDL version 420,2013-02-05 18:16:00,
2013-02-05 13:21:00,39.4,28.3,28.76,WNW,290,5.6,8.5,63,-99.99,,,-99.99,WSDL version 420,2013-02-05 18:21:00,
2013-02-05 13:26:00,39.7,27.8,28.76,West,273,3.2,8.5,62,-99.99,,,-99.99,WSDL version 420,2013-02-05 18:26:00,
2013-02-05 13:31:00,40.5,27.8,28.76,NW,309,3.7,8.5,60,-99.99,,,-99.99,WSDL version 420,2013-02-05 18:31:00,
2013-02-05 13:36:00,40.7,25.8,28.76,West,281,4.1,10.3,54,-99.99,,,-99.99,WSDL version 420,2013-02-05 18:36:00,
2013-02-05 13:41:00,41.5,25.7,28.76,West,264,3.5,10.3,52,-99.99,,,-99.99,WSDL version 420,2013-02-05 18:41:00,
2013-02-05 13:46:00,40.9,23.8,28.76,WSW,258,3.7,8.1,50,-99.99,,,-99.99,WSDL version 420,2013-02-05 18:46:00,
2013-02-05 13:51:00,40.6,23.7,28.76,NNW,341,3.5,8.1,51,-99.99,,,-99.99,WSDL version 420,2013-02-05 18:51:00,
2013-02-05 13:56:00,41.2,23.9,28.76,WNW,285,3.4,8.7,48,-99.99,,,-99.99,WSDL version 420,2013-02-05 18:56:00,
2013-02-05 14:01:00,40.9,22.6,28.76,NW,320,2.2,8.7,48,-99.99,,,-99.99,WSDL version 420,2013-02-05 19:01:00,
2013-02-05 14:06:00,40.5,21.3,28.76,NW,307,6.4,10.5,46,-99.99,,,-99.99,WSDL version 420,2013-02-05 19:06:00,
2013-02-05 14:11:00,40.2,20.9,28.76,WNW,293,5.8,10.5,45,-99.99,,,-99.99,WSDL version 420,2013-02-05 19:11:00,
2013-02-05 14:16:00,40.3,20.7,28.76,WNW,302,7.3,13.2,44,-99.99,,,-99.99,WSDL version 420,2013-02-05 19:16:00,
2013-02-05 14:21:00,40.1,19.5,28.76,West,273,5.9,13.2,43,-99.99,,,-99.99,WSDL version 420,2013-02-05 19:21:00,
2013-02-05 14:26:00,40.5,19.7,28.76,WNW,287,6.4,13.2,42,-99.99,,,-99.99,WSDL version 420,2013-02-05 19:26:00,
2013-02-05 14:32:00,40.7,19.4,28.76,WSW,258,4.1,10.1,42,-99.99,,,-99.99,WSDL version 420,2013-02-05 19:32:00,
2013-02-05 14:38:00,41.4,19.6,28.76,West,260,3.5,6.5,41,-99.99,,,-99.99,WSDL version 420,2013-02-05 19:38:00,
2013-02-05 14:43:00,42.1,20.3,28.76,North,355,1.3,6.5,42,-99.99,,,-99.99,WSDL version 420,2013-02-05 19:43:00,
2013-02-05 14:48:00,42.0,19.1,28.76,WNW,298,6.3,8.5,38,-99.99,,,-99.99,WSDL version 420,2013-02-05 19:48:00,
2013-02-05 14:53:00,41.7,18.0,28.79,NW,304,5.3,8.5,38,-99.99,,,-99.99,WSDL version 420,2013-02-05 19:53:00,
2013-02-05 14:58:00,41.5,17.8,28.79,NW,307,3.7,8.5,38,-99.99,,,-99.99,WSDL version 420,2013-02-05 19:58:00,
2013-02-05 15:03:00,41.2,17.5,28.79,NW,305,4.2,8.1,38,-99.99,,,-99.99,WSDL version 420,2013-02-05 20:03:00,
2013-02-05 15:09:00,41.0,17.4,28.79,NW,323,4.0,7.6,38,-99.99,,,-99.99,WSDL version 420,2013-02-05 20:09:00,
2013-02-05 15:14:00,40.7,17.7,28.79,West,268,3.8,7.6,39,-99.99,,,-99.99,WSDL version 420,2013-02-05 20:14:00,
2013-02-05 15:19:00,40.4,17.4,28.79,WNW,287,4.8,8.1,39,-99.99,,,-99.99,WSDL version 420,2013-02-05 20:19:00,
2013-02-05 15:24:00,40.5,17.5,28.79,WNW,293,3.7,8.1,39,-99.99,,,-99.99,WSDL version 420,2013-02-05 20:24:00,
2013-02-05 15:29:00,40.9,17.6,28.79,West,264,2.9,6.5,38,-99.99,,,-99.99,WSDL version 420,2013-02-05 20:29:00,
2013-02-05 15:34:00,41.2,17.2,28.79,West,265,3.9,6.5,37,-99.99,,,-99.99,WSDL version 420,2013-02-05 20:34:00,
2013-02-05 15:39:00,40.9,16.1,28.79,WNW,293,4.6,8.7,36,-99.99,,,-99.99,WSDL version 420,2013-02-05 20:39:00,
2013-02-05 15:44:00,40.6,15.6,28.79,WNW,290,5.2,8.7,35,-99.99,,,-99.99,WSDL version 420,2013-02-05 20:44:00,
2013-02-05 15:49:00,40.3,14.6,28.79,NW,313,4.5,10.3,35,-99.99,,,-99.99,WSDL version 420,2013-02-05 20:49:00,
2013-02-05 15:54:00,40.3,14.8,28.79,WSW,253,3.2,10.3,35,-99.99,,,-99.99,WSDL version 420,2013-02-05 20:54:00,
2013-02-05 15:59:00,39.8,14.3,28.79,WNW,283,5.4,9.6,35,-99.99,,,-99.99,WSDL version 420,2013-02-05 20:59:00,
2013-02-05 16:04:00,39.6,14.6,28.79,WNW,298,3.9,9.6,36,-99.99,,,-99.99,WSDL version 420,2013-02-05 21:04:00,
2013-02-05 16:09:00,39.7,15.2,28.79,WNW,293,3.7,7.4,37,-99.99,,,-99.99,WSDL version 420,2013-02-05 21:09:00,
2013-02-05 16:14:00,39.7,15.9,28.79,WNW,298,3.5,6.5,37,-99.99,,,-99.99,WSDL version 420,2013-02-05 21:14:00,
2013-02-05 16:19:00,39.7,16.0,28.79,WNW,289,4.3,4.9,38,-99.99,,,-99.99,WSDL version 420,2013-02-05 21:19:00,
2013-02-05 16:24:00,39.4,16.0,28.79,West,275,2.6,5.8,39,-99.99,,,-99.99,WSDL version 420,2013-02-05 21:24:00,
2013-02-05 16:29:00,39.4,16.5,28.79,West,276,2.4,5.8,39,-99.99,,,-99.99,WSDL version 420,2013-02-05 21:29:00,
2013-02-05 16:34:00,39.2,16.3,28.79,NW,310,2.2,6.0,39,-99.99,,,-99.99,WSDL version 420,2013-02-05 21:34:00,
2013-02-05 16:39:00,38.9,16.1,28.79,West,276,3.1,6.0,39,-99.99,,,-99.99,WSDL version 420,2013-02-05 21:39:00,
2013-02-05 16:44:00,38.7,16.0,28.79,NW,315,1.3,4.3,40,-99.99,,,-99.99,WSDL version 420,2013-02-05 21:44:00,
2013-02-05 16:49:00,38.9,16.6,28.79,NW,305,1.5,3.6,40,-99.99,,,-99.99,WSDL version 420,2013-02-05 21:49:00,
2013-02-05 16:54:00,38.7,16.3,28.82,NW,308,2.7,3.8,40,-99.99,,,-99.99,WSDL version 420,2013-02-05 21:54:00,
2013-02-05 16:59:00,38.6,16.3,28.82,West,273,1.4,3.8,40,-99.99,,,-99.99,WSDL version 420,2013-02-05 21:59:00,
2013-02-05 17:04:00,38.2,16.0,28.82,WNW,290,2.5,6.0,40,-99.99,,,-99.99,WSDL version 420,2013-02-05 22:04:00,
2013-02-05 17:09:00,37.9,15.8,28.82,WNW,295,4.0,8.1,40,-99.99,,,-99.99,WSDL version 420,2013-02-05 22:09:00,
2013-02-05 17:14:00,37.8,15.6,28.82,WNW,298,3.1,8.1,40,-99.99,,,-99.99,WSDL version 420,2013-02-05 22:14:00,
2013-02-05 17:19:00,37.6,15.6,28.82,NW,309,3.7,5.8,41,-99.99,,,-99.99,WSDL version 420,2013-02-05 22:19:00,
2013-02-05 17:24:00,37.4,15.7,28.82,West,275,3.8,8.5,41,-99.99,,,-99.99,WSDL version 420,2013-02-05 22:24:00,
2013-02-05 17:29:00,37.1,15.6,28.82,WNW,284,4.5,8.5,41,-99.99,,,-99.99,WSDL version 420,2013-02-05 22:29:00,
2013-02-05 17:34:00,37.0,15.6,28.82,WSW,253,3.3,6.5,42,-99.99,,,-99.99,WSDL version 420,2013-02-05 22:34:00,
2013-02-05 17:39:00,36.8,15.5,28.82,West,267,3.1,7.2,41,-99.99,,,-99.99,WSDL version 420,2013-02-05 22:39:00,
2013-02-05 17:44:00,36.7,15.8,28.82,WNW,288,5.6,8.7,42,-99.99,,,-99.99,WSDL version 420,2013-02-05 22:44:00,
2013-02-05 17:49:00,36.4,15.5,28.82,WSW,248,1.5,8.7,42,-99.99,,,-99.99,WSDL version 420,2013-02-05 22:49:00,
2013-02-05 17:54:00,36.2,15.3,28.82,WNW,297,1.3,4.0,42,-99.99,,,-99.99,WSDL version 420,2013-02-05 22:54:00,
2013-02-05 17:59:00,36.1,15.8,28.82,NNW,338,3.4,7.2,43,-99.99,,,-99.99,WSDL version 420,2013-02-05 22:59:00,
2013-02-05 18:04:00,35.8,15.6,28.82,WNW,303,2.0,7.2,44,-99.99,,,-99.99,WSDL version 420,2013-02-05 23:04:00,
2013-02-05 18:09:00,35.6,15.8,28.82,WNW,298,4.1,5.8,44,-99.99,,,-99.99,WSDL version 420,2013-02-05 23:09:00,
2013-02-05 18:14:00,35.4,16.2,28.82,NW,313,4.2,7.6,45,-99.99,,,-99.99,WSDL version 420,2013-02-05 23:14:00,
2013-02-05 18:19:00,35.2,16.0,28.82,WNW,285,5.1,9.8,45,-99.99,,,-99.99,WSDL version 420,2013-02-05 23:19:00,
2013-02-05 18:24:00,35.0,15.8,28.85,WNW,300,3.7,9.8,45,-99.99,,,-99.99,WSDL version 420,2013-02-05 23:24:00,
2013-02-05 18:29:00,34.8,15.9,28.85,NW,326,2.5,6.3,46,-99.99,,,-99.99,WSDL version 420,2013-02-05 23:29:00,
2013-02-05 18:34:00,34.6,16.5,28.85,NW,307,4.8,7.6,49,-99.99,,,-99.99,WSDL version 420,2013-02-05 23:34:00,
2013-02-05 18:39:00,34.5,17.6,28.85,West,273,1.8,7.6,50,-99.99,,,-99.99,WSDL version 420,2013-02-05 23:39:00,
2013-02-05 18:44:00,34.3,17.5,28.85,North,11,1.1,4.0,50,-99.99,,,-99.99,WSDL version 420,2013-02-05 23:44:00,
2013-02-05 18:49:00,34.0,17.3,28.85,WNW,288,0.1,2.5,50,-99.99,,,-99.99,WSDL version 420,2013-02-05 23:49:00,
2013-02-05 18:54:00,34.0,17.3,28.85,NW,326,0.8,2.7,50,-99.99,,,-99.99,WSDL version 420,2013-02-05 23:54:00,
2013-02-05 18:59:00,33.9,17.8,28.85,NW,305,1.5,3.6,52,-99.99,,,-99.99,WSDL version 420,2013-02-05 23:59:00,
2013-02-05 19:04:00,33.8,18.5,28.85,ENE,63,0.0,3.6,54,-99.99,,,-99.99,WSDL version 420,2013-02-06 00:04:00,
2013-02-05 19:09:00,33.6,18.8,28.85,NNW,333,0.8,2.5,54,-99.99,,,-99.99,WSDL version 420,2013-02-06 00:09:00,
2013-02-05 19:14:00,33.5,18.7,28.85,WNW,293,0.0,2.5,54,-99.99,,,-99.99,WSDL version 420,2013-02-06 00:14:00,
2013-02-05 19:19:00,33.4,18.9,28.85,WNW,293,0.0,1.6,55,-99.99,,,-99.99,WSDL version 420,2013-02-06 00:19:00,
2013-02-05 19:24:00,33.3,18.8,28.85,WNW,293,0.0,0.9,55,-99.99,,,-99.99,WSDL version 420,2013-02-06 00:24:00,
2013-02-05 19:29:00,33.2,19.2,28.85,WNW,293,0.0,0.9,56,-99.99,,,-99.99,WSDL version 420,2013-02-06 00:29:00,
2013-02-05 19:34:00,33.1,19.4,28.85,WNW,293,0.0,0.0,57,-99.99,,,-99.99,WSDL version 420,2013-02-06 00:34:00,
2013-02-05 19:39:00,33.1,19.8,28.85,WNW,293,0.0,0.0,58,-99.99,,,-99.99,WSDL version 420,2013-02-06 00:39:00,
2013-02-05 19:44:00,33.1,19.9,28.85,WNW,293,0.0,1.1,58,-99.99,,,-99.99,WSDL version 420,2013-02-06 00:44:00,
2013-02-05 19:49:00,33.1,20.4,28.85,WNW,293,0.4,1.6,59,-99.99,,,-99.99,WSDL version 420,2013-02-06 00:49:00,
2013-02-05 19:54:00,33.1,20.4,28.82,WNW,293,0.1,2.5,60,-99.99,,,-99.99,WSDL version 420,2013-02-06 00:54:00,
2013-02-05 19:59:00,33.1,20.9,28.82,WNW,293,0.1,2.5,61,-99.99,,,-99.99,WSDL version 420,2013-02-06 00:59:00,
2013-02-05 20:04:00,33.1,21.3,28.82,WNW,293,0.0,1.3,62,-99.99,,,-99.99,WSDL version 420,2013-02-06 01:04:00,
2013-02-05 20:09:00,33.1,21.8,28.85,WNW,293,0.0,1.3,63,-99.99,,,-99.99,WSDL version 420,2013-02-06 01:09:00,
2013-02-05 20:14:00,33.1,21.9,28.85,WNW,293,0.0,0.9,63,-99.99,,,-99.99,WSDL version 420,2013-02-06 01:14:00,
2013-02-05 20:19:00,32.9,21.9,28.85,WNW,293,0.0,0.0,64,-99.99,,,-99.99,WSDL version 420,2013-02-06 01:19:00,
2013-02-05 20:24:00,32.9,22.2,28.82,WNW,293,0.0,0.0,65,-99.99,,,-99.99,WSDL version 420,2013-02-06 01:24:00,
2013-02-05 20:29:00,32.8,22.3,28.82,WNW,293,0.0,0.0,65,-99.99,,,-99.99,WSDL version 420,2013-02-06 01:29:00,
2013-02-05 20:34:00,32.7,22.3,28.82,WNW,293,0.0,0.0,65,-99.99,,,-99.99,WSDL version 420,2013-02-06 01:34:00,
2013-02-05 20:39:00,32.7,22.2,28.85,WNW,293,0.0,0.0,65,-99.99,,,-99.99,WSDL version 420,2013-02-06 01:39:00,
2013-02-05 20:44:00,32.5,22.4,28.85,WNW,293,0.0,0.0,66,-99.99,,,-99.99,WSDL version 420,2013-02-06 01:44:00,
2013-02-05 20:49:00,32.5,22.4,28.85,WNW,293,0.0,0.0,66,-99.99,,,-99.99,WSDL version 420,2013-02-06 01:49:00,
2013-02-05 20:54:00,32.4,22.5,28.85,WNW,293,0.0,0.0,67,-99.99,,,-99.99,WSDL version 420,2013-02-06 01:54:00,
2013-02-05 21:00:00,32.2,22.5,28.85,WNW,293,0.0,0.0,67,-99.99,,,-99.99,WSDL version 420,2013-02-06 02:00:00,
2013-02-05 21:05:00,32.2,22.5,28.85,WNW,293,0.0,0.0,67,-99.99,,,-99.99,WSDL version 420,2013-02-06 02:05:00,
2013-02-05 21:10:00,32.2,22.8,28.85,WNW,293,0.0,0.0,68,-99.99,,,-99.99,WSDL version 420,2013-02-06 02:10:00,
2013-02-05 21:15:00,32.1,22.9,28.85,WNW,293,0.0,0.0,67,-99.99,,,-99.99,WSDL version 420,2013-02-06 02:15:00,
2013-02-05 21:20:00,32.0,23.4,28.85,WNW,293,0.0,0.0,68,-99.99,,,-99.99,WSDL version 420,2013-02-06 02:20:00,
2013-02-05 21:25:00,32.0,23.6,28.85,WNW,293,0.0,0.0,68,-99.99,,,-99.99,WSDL version 420,2013-02-06 02:25:00,
2013-02-05 21:30:00,32.2,23.0,28.85,WNW,293,0.0,0.0,69,-99.99,,,-99.99,WSDL version 420,2013-02-06 02:30:00,
2013-02-05 21:35:00,32.0,23.9,28.85,WNW,293,0.0,0.0,69,-99.99,,,-99.99,WSDL version 420,2013-02-06 02:35:00,
2013-02-05 21:40:00,32.0,24.2,28.85,WNW,293,0.0,0.0,70,-99.99,,,-99.99,WSDL version 420,2013-02-06 02:40:00,
2013-02-05 21:45:00,32.0,24.3,28.85,WNW,293,0.0,0.0,70,-99.99,,,-99.99,WSDL version 420,2013-02-06 02:45:00,
2013-02-05 21:50:00,32.0,24.3,28.85,WNW,293,0.0,0.0,70,-99.99,,,-99.99,WSDL version 420,2013-02-06 02:50:00,
2013-02-05 21:55:00,32.0,24.3,28.85,WNW,293,0.0,0.0,70,-99.99,,,-99.99,WSDL version 420,2013-02-06 02:55:00,
2013-02-05 22:00:00,32.0,24.3,28.85,WNW,293,0.0,0.9,70,-99.99,,,-99.99,WSDL version 420,2013-02-06 03:00:00,
2013-02-05 22:05:00,32.0,24.3,28.85,WNW,293,0.0,0.9,70,-99.99,,,-99.99,WSDL version 420,2013-02-06 03:05:00,
2013-02-05 22:10:00,32.2,23.9,28.85,WNW,293,0.0,0.0,71,-99.99,,,-99.99,WSDL version 420,2013-02-06 03:10:00,
2013-02-05 22:15:00,32.2,24.0,28.85,WNW,293,0.0,0.0,72,-99.99,,,-99.99,WSDL version 420,2013-02-06 03:15:00,
2013-02-05 22:20:00,32.2,24.2,28.85,WNW,293,0.0,0.0,72,-99.99,,,-99.99,WSDL version 420,2013-02-06 03:20:00,
2013-02-05 22:25:00,32.2,24.1,28.85,WNW,293,0.0,1.1,72,-99.99,,,-99.99,WSDL version 420,2013-02-06 03:25:00,
2013-02-05 22:30:00,32.2,24.2,28.85,WNW,293,0.5,1.3,72,-99.99,,,-99.99,WSDL version 420,2013-02-06 03:30:00,
2013-02-05 22:35:00,32.3,24.3,28.85,WNW,293,0.0,1.3,72,-99.99,,,-99.99,WSDL version 420,2013-02-06 03:35:00,
2013-02-05 22:40:00,32.4,24.6,28.85,WNW,293,0.0,0.0,73,-99.99,,,-99.99,WSDL version 420,2013-02-06 03:40:00,
2013-02-05 22:45:00,32.4,24.9,28.85,WNW,293,0.1,2.0,74,-99.99,,,-99.99,WSDL version 420,2013-02-06 03:45:00,
2013-02-05 22:50:00,32.5,25.1,28.85,WNW,293,0.0,2.0,74,-99.99,,,-99.99,WSDL version 420,2013-02-06 03:50:00,
2013-02-05 22:55:00,32.5,25.2,28.85,WNW,293,0.3,2.0,74,-99.99,,,-99.99,WSDL version 420,2013-02-06 03:55:00,
2013-02-05 23:00:00,32.5,25.2,28.85,WNW,293,0.0,1.6,74,-99.99,,,-99.99,WSDL version 420,2013-02-06 04:00:00,
2013-02-05 23:05:00,32.5,25.2,28.85,WNW,293,0.0,0.9,74,-99.99,,,-99.99,WSDL version 420,2013-02-06 04:05:00,
2013-02-05 23:10:00,32.5,25.2,28.85,WNW,293,0.0,0.0,74,-99.99,,,-99.99,WSDL version 420,2013-02-06 04:10:00,
2013-02-05 23:15:00,32.5,25.0,28.85,WNW,293,0.0,1.1,73,-99.99,,,-99.99,WSDL version 420,2013-02-06 04:15:00,
2013-02-05 23:20:00,32.5,24.9,28.85,WNW,293,0.0,1.1,73,-99.99,,,-99.99,WSDL version 420,2013-02-06 04:20:00,
2013-02-05 23:25:00,32.5,25.1,28.85,WNW,293,0.0,1.1,74,-99.99,,,-99.99,WSDL version 420,2013-02-06 04:25:00,
2013-02-05 23:31:00,32.5,25.2,28.85,WNW,293,0.0,0.0,74,-99.99,,,-99.99,WSDL version 420,2013-02-06 04:31:00,
2013-02-05 23:36:00,32.4,25.0,28.85,WNW,293,0.0,0.0,74,-99.99,,,-99.99,WSDL version 420,2013-02-06 04:36:00,
2013-02-05 23:41:00,32.4,25.1,28.85,WNW,293,0.0,0.0,75,-99.99,,,-99.99,WSDL version 420,2013-02-06 04:41:00,
2013-02-05 23:46:00,32.2,25.2,28.85,WNW,293,0.0,0.0,75,-99.99,,,-99.99,WSDL version 420,2013-02-06 04:46:00,
2013-02-05 23:51:00,32.2,25.2,28.85,WNW,293,0.0,0.0,75,-99.99,,,-99.99,WSDL version 420,2013-02-06 04:51:00,
2013-02-05 23:56:00,32.2,25.3,28.85,WNW,293,0.0,0.0,76,-99.99,,,-99.99,WSDL version 420,2013-02-06 04:56:00,